When you browse on this site, cookies collect data to enhance your experience and personalize the content and advertising you see.
Visit our Privacy Policy to learn more. By continuing to use the site, you agree to this use of cookies and data.
  • In Romania
  • List of Countries
  • For 7 days
  • Water Temperature
  • Satellite Maps
  • Weather Map
  • Weather Widgets
  • user-avatar
    Login

    Hourly Weather Rustawi

    Today, 19 March, Tuesday

    Time Temperature Precipitation Wind Pressure Humidity
    00:00 +5°C° 0.3 mm 2 mps 730 mmHg 75%
    01:00 +5°C° 0.4 mm 2 mps 730 mmHg 76%
    02:00 +4°C° 0.4 mm 2 mps 730 mmHg 78%
    03:00 +3°C° 0 mm 3 mps 729 mmHg 73%
    04:00 +3°C° 0.1 mm 3 mps 730 mmHg 74%
    05:00 +4°C° 0.1 mm 2 mps 730 mmHg 75%
    06:00 +4°C° 0.1 mm 2 mps 730 mmHg 75%
    07:00 +5°C° 0 mm 2 mps 730 mmHg 70%
    08:00 +6°C° 0 mm 2 mps 730 mmHg 65%
    09:00 +7°C° 0 mm 2 mps 730 mmHg 60%
    10:00 +9°C° 0 mm 2 mps 730 mmHg 56%
    11:00 +10°C° 0 mm 2 mps 730 mmHg 51%
    12:00 +12°C° 0 mm 2 mps 729 mmHg 47%
    13:00 +13°C° 0 mm 1 mps 729 mmHg 45%
    14:00 +13°C° 0 mm 1 mps 729 mmHg 43%
    15:00 +14°C° 0 mm 1 mps 728 mmHg 40%
    16:00 +13°C° 0 mm 1 mps 729 mmHg 43%
    17:00 +13°C° 0 mm 1 mps 729 mmHg 46%
    18:00 +12°C° 0 mm 1 mps 729 mmHg 49%
    19:00 +11°C° 0 mm 1 mps 729 mmHg 51%
    20:00 +10°C° 0 mm 0 mps 730 mmHg 53%
    21:00 +9°C° 0 mm 0 mps 730 mmHg 55%
    22:00 +9°C° 0 mm 0 mps 730 mmHg 58%
    23:00 +9°C° 0 mm 1 mps 730 mmHg 60%

    Tomorrow, 20 March, Wednesday

    Time Temperature Precipitation Wind Pressure Humidity
    00:00 +9°C° 0 mm 1 mps 730 mmHg 63%
    01:00 +8°C° 0 mm 1 mps 729 mmHg 67%
    02:00 +8°C° 0 mm 1 mps 729 mmHg 72%
    03:00 +7°C° 0 mm 1 mps 729 mmHg 77%
    04:00 +6°C° 0 mm 0 mps 729 mmHg 79%
    05:00 +5°C° 0 mm 0 mps 729 mmHg 82%
    06:00 +5°C° 0 mm 0 mps 729 mmHg 84%
    07:00 +6°C° 0 mm 0 mps 728 mmHg 77%
    08:00 +8°C° 0 mm 0 mps 728 mmHg 70%
    09:00 +10°C° 0 mm 1 mps 728 mmHg 63%
    10:00 +12°C° 0 mm 1 mps 728 mmHg 57%
    11:00 +13°C° 0 mm 1 mps 727 mmHg 50%
    12:00 +15°C° 0 mm 1 mps 727 mmHg 44%
    13:00 +15°C° 0 mm 2 mps 727 mmHg 42%
    14:00 +16°C° 0 mm 2 mps 726 mmHg 40%
    15:00 +16°C° 0 mm 2 mps 726 mmHg 38%
    16:00 +15°C° 0 mm 2 mps 726 mmHg 42%
    17:00 +14°C° 0 mm 2 mps 726 mmHg 45%
    18:00 +13°C° 0 mm 2 mps 727 mmHg 48%
    19:00 +13°C° 0 mm 2 mps 727 mmHg 53%
    20:00 +12°C° 0 mm 2 mps 728 mmHg 57%
    21:00 +10°C° 0 mm 2 mps 728 mmHg 62%
    22:00 +10°C° 0 mm 1 mps 728 mmHg 67%
    23:00 +10°C° 0 mm 1 mps 728 mmHg 72%

    Day after tomorrow, 21 March, Thursday

    Time Temperature Precipitation Wind Pressure Humidity
    00:00 +9°C° 0 mm 1 mps 728 mmHg 77%
    01:00 +9°C° 0 mm 1 mps 728 mmHg 80%
    02:00 +8°C° 0 mm 1 mps 728 mmHg 83%
    03:00 +7°C° 0 mm 0 mps 728 mmHg 85%
    04:00 +7°C° 0 mm 1 mps 728 mmHg 85%
    05:00 +7°C° 0 mm 1 mps 728 mmHg 86%
    06:00 +7°C° 0 mm 1 mps 728 mmHg 86%
    07:00 +8°C° 0 mm 1 mps 728 mmHg 75%
    08:00 +9°C° 0 mm 2 mps 728 mmHg 65%
    09:00 +10°C° 0 mm 2 mps 728 mmHg 55%
    10:00 +13°C° 0 mm 2 mps 728 mmHg 48%
    11:00 +14°C° 0 mm 2 mps 727 mmHg 41%
    12:00 +16°C° 0 mm 3 mps 727 mmHg 34%
    13:00 +16°C° 0 mm 3 mps 727 mmHg 32%
    14:00 +17°C° 0 mm 3 mps 726 mmHg 30%
    15:00 +18°C° 0 mm 3 mps 726 mmHg 28%
    16:00 +17°C° 0 mm 3 mps 726 mmHg 32%
    17:00 +14°C° 0 mm 3 mps 726 mmHg 35%
    18:00 +13°C° 0 mm 3 mps 727 mmHg 39%
    19:00 +13°C° 0 mm 2 mps 727 mmHg 43%
    20:00 +12°C° 0 mm 2 mps 728 mmHg 48%
    21:00 +10°C° 0 mm 2 mps 728 mmHg 53%
    22:00 +9°C° 0 mm 2 mps 728 mmHg 57%
    23:00 +8°C° 0 mm 2 mps 728 mmHg 61%

    22 March, Friday

    Time Temperature Precipitation Wind Pressure Humidity
    00:00 +8°C° 0 mm 2 mps 728 mmHg 65%
    01:00 +7°C° 0 mm 2 mps 728 mmHg 67%
    02:00 +7°C° 0 mm 2 mps 728 mmHg 69%
    03:00 +6°C° 0 mm 2 mps 728 mmHg 70%
    04:00 +6°C° 0 mm 2 mps 728 mmHg 72%
    05:00 +5°C° 0 mm 2 mps 728 mmHg 73%
    06:00 +5°C° 0 mm 2 mps 728 mmHg 74%
    07:00 +5°C° 0 mm 3 mps 728 mmHg 65%
    08:00 +8°C° 0 mm 3 mps 728 mmHg 57%
    09:00 +9°C° 0 mm 3 mps 728 mmHg 48%
    10:00 +11°C° 0 mm 4 mps 727 mmHg 44%
    11:00 +12°C° 0 mm 4 mps 727 mmHg 41%
    12:00 +13°C° 0 mm 4 mps 726 mmHg 37%
    13:00 +13°C° 0 mm 5 mps 726 mmHg 36%
    14:00 +13°C° 0 mm 6 mps 726 mmHg 36%
    15:00 +14°C° 0 mm 7 mps 725 mmHg 36%
    16:00 +11°C° 0 mm 7 mps 726 mmHg 39%
    17:00 +9°C° 0 mm 7 mps 726 mmHg 43%
    18:00 +8°C° 0 mm 7 mps 726 mmHg 47%
    19:00 +7°C° 0.2 mm 6 mps 727 mmHg 48%
    20:00 +7°C° 0.2 mm 6 mps 727 mmHg 49%
    21:00 +6°C° 0.2 mm 5 mps 728 mmHg 50%
    22:00 +6°C° 0 mm 5 mps 728 mmHg 51%
    23:00 +5°C° 0 mm 4 mps 728 mmHg 52%

    23 March, Saturday

    Time Temperature Precipitation Wind Pressure Humidity
    00:00 +5°C° 0 mm 4 mps 728 mmHg 53%
    01:00 +5°C° 0 mm 4 mps 728 mmHg 54%
    02:00 +4°C° 0 mm 4 mps 728 mmHg 56%
    03:00 +4°C° 0 mm 4 mps 728 mmHg 57%
    04:00 +4°C° 0 mm 4 mps 729 mmHg 57%
    05:00 +3°C° 0 mm 4 mps 729 mmHg 57%
    06:00 +2°C° 0 mm 5 mps 729 mmHg 57%
    07:00 +3°C° 0 mm 6 mps 730 mmHg 52%
    08:00 +3°C° 0 mm 7 mps 730 mmHg 48%
    09:00 +4°C° 0 mm 8 mps 730 mmHg 44%
    10:00 +5°C° 0 mm 8 mps 730 mmHg 40%
    11:00 +7°C° 0 mm 8 mps 730 mmHg 36%
    12:00 +9°C° 0 mm 7 mps 730 mmHg 31%
    13:00 +9°C° 0 mm 7 mps 729 mmHg 32%
    14:00 +9°C° 0 mm 7 mps 729 mmHg 32%
    15:00 +9°C° 0 mm 6 mps 729 mmHg 32%
    16:00 +8°C° 0 mm 6 mps 729 mmHg 36%
    17:00 +7°C° 0 mm 6 mps 729 mmHg 40%
    18:00 +6°C° 0 mm 5 mps 729 mmHg 44%
    19:00 +5°C° 0 mm 5 mps 730 mmHg 48%
    20:00 +3°C° 0 mm 5 mps 731 mmHg 51%
    21:00 +3°C° 0 mm 4 mps 731 mmHg 54%
    22:00 +3°C° 0 mm 4 mps 731 mmHg 56%
    23:00 +3°C° 0 mm 4 mps 731 mmHg 58%

    24 March, Sunday

    Time Temperature Precipitation Wind Pressure Humidity
    00:00 +2°C° 0 mm 3 mps 731 mmHg 59%
    01:00 +2°C° 0 mm 3 mps 731 mmHg 61%
    02:00 +2°C° 0 mm 2 mps 731 mmHg 63%
    03:00 +2°C° 0 mm 2 mps 731 mmHg 66%
    04:00 +1°C° 0 mm 2 mps 731 mmHg 67%
    05:00 +1°C° 0 mm 2 mps 731 mmHg 68%
    06:00 -1°C° 0 mm 2 mps 731 mmHg 68%
    07:00 +2°C° 0 mm 2 mps 731 mmHg 60%
    08:00 +4°C° 0 mm 2 mps 730 mmHg 51%
    09:00 +6°C° 0 mm 2 mps 730 mmHg 43%
    10:00 +7°C° 0 mm 2 mps 729 mmHg 37%
    11:00 +9°C° 0 mm 2 mps 729 mmHg 32%
    12:00 +10°C° 0 mm 2 mps 728 mmHg 27%
    13:00 +11°C° 0 mm 3 mps 728 mmHg 26%
    14:00 +12°C° 0 mm 3 mps 727 mmHg 25%
    15:00 +12°C° 0 mm 4 mps 726 mmHg 23%
    16:00 +11°C° 0 mm 4 mps 727 mmHg 27%
    17:00 +10°C° 0 mm 3 mps 727 mmHg 31%
    18:00 +9°C° 0 mm 3 mps 727 mmHg 34%
    19:00 +8°C° 0 mm 3 mps 727 mmHg 40%
    20:00 +7°C° 0 mm 3 mps 728 mmHg 46%
    21:00 +5°C° 0 mm 3 mps 728 mmHg 53%
    22:00 +4°C° 0 mm 3 mps 728 mmHg 57%
    23:00 +4°C° 0 mm 3 mps 728 mmHg 60%
    Show more